This is the latest recevied weather packets stored in our database for station/object ON5MM-5. If no packets are shown the sender has not sent any weather packets the latest 10 day(s).
| Time | Temp. | Humidity | Pressure | Rain* | Wind** | Luminosity | Snow |
|---|---|---|---|---|---|---|---|
| 1777519802 | 6.11° C | 43% | 1027.4 hPa | 0 mm | 0.89 m/s, ° | - | - |
| 1777519502 | 6.11° C | 44% | 1027.4 hPa | 0 mm | 0.89 m/s, ° | - | - |
| 1777519201 | 6.11° C | 44% | 1027.5 hPa | 0 mm | 0.89 m/s, ° | - | - |
| 1777518902 | 6.11° C | 44% | 1027.4 hPa | 0 mm | 0 m/s | - | - |
| 1777518602 | 6.11° C | 44% | 1027.2 hPa | 0 mm | 0.45 m/s, ° | - | - |
| 1777518302 | 6.67° C | 44% | 1027.2 hPa | 0 mm | 1.34 m/s, ° | - | - |
| 1777518003 | 6.67° C | 44% | 1027.2 hPa | 0 mm | 1.79 m/s, ° | - | - |
| 1777517702 | 6.67° C | 44% | 1027.2 hPa | 0 mm | 1.79 m/s, ° | - | - |
| 1777517403 | 6.11° C | 45% | 1027.2 hPa | 0 mm | 1.79 m/s, ° | - | - |
| 1777517103 | 6.11° C | 45% | 1027.2 hPa | 0 mm | 1.79 m/s, ° | - | - |
| 1777516802 | 6.11° C | 45% | 1027.2 hPa | 0 mm | 1.79 m/s, ° | - | - |
| 1777516503 | 6.11° C | 45% | 1027.2 hPa | 0 mm | 1.34 m/s, ° | - | - |
| 1777516202 | 6.11° C | 46% | 1027.2 hPa | 0 mm | 1.79 m/s, ° | - | - |
| 1777515902 | 6.11° C | 46% | 1027.3 hPa | 0 mm | 1.34 m/s, ° | - | - |
| 1777515603 | 6.11° C | 46% | 1027.4 hPa | 0 mm | 0.89 m/s, ° | - | - |
| 1777515302 | 6.67° C | 45% | 1027.3 hPa | 0 mm | 0.45 m/s, ° | - | - |
| 1777515003 | 6.67° C | 45% | 1027.3 hPa | 0 mm | 1.34 m/s, ° | - | - |
| 1777514702 | 6.67° C | 45% | 1027.4 hPa | 0 mm | 1.34 m/s, ° | - | - |
| 1777514403 | 6.67° C | 46% | 1027.4 hPa | 0 mm | 0.89 m/s, ° | - | - |
| 1777514102 | 6.67° C | 46% | 1027.3 hPa | 0 mm | 0.45 m/s, ° | - | - |
| 1777513802 | 6.67° C | 45% | 1027.3 hPa | 0 mm | 0.89 m/s, ° | - | - |
| 1777513501 | 6.67° C | 45% | 1027.3 hPa | 0 mm | 0.89 m/s, ° | - | - |
| 1777512902 | 6.67° C | 45% | 1027.3 hPa | 0 mm | 0.89 m/s, ° | - | - |
| 1777512002 | 7.22° C | 44% | 1027.4 hPa | 0 mm | 0.89 m/s, ° | - | - |
| 1777511702 | 7.22° C | 43% | 1027.4 hPa | 0 mm | 1.79 m/s, ° | - | - |
* Rain latest hour (hover to see other rain measurements)
** Current wind speed in m/s (hover to see current wind gust speed)